Погода в Тюневе

Россия / Тюменская область     57°23′25″N   65°41′54″E
темп.,
°C
ветер,
м/с
пор.,
м/с
влажн.,
%
обл.,
%
осадки,
мм/ч
давл.,
гПа
погр.,
м
20 апреля, вт
вт2023:00−5в24553 0.0 1034126
02:00−5ююв12555 0.0 103470
05:00−5юз25535 0.0 1034167
08:00−1зюз463655 0.0 1033495
11:00+4з57316 0.0 10301294
14:00+7з68315 0.0 10281649
17:00+8зсз58375 0.0 10261769
20:00+4з38585 0.0 1026131
21 апреля, ср
ср2123:00+2зсз3106712 0.0 1026193
02:00+1сз39745 0.0 1026181
05:000ссз38875 0.0 1028147
08:00+4с35755 0.0 1029336
11:00+8с465557 0.0 10301310
14:00+8ссв4552100 0.0 10311503
17:00+8ссв345292 0.0 10331323
20:00+5в23685 0.0 103453
22 апреля, чт
чт2223:00+3вюв22754 0.0 103635
02:00+1юв22760 0.0 103621
05:000ююв22814 0.0 103721
08:00+5ююв34635 0.0 1038273
11:00+10ююв34495 0.0 1038891
14:00+13ю45428 0.0 10371640
17:00+14ю464050 0.0 10361859
20:00+10ююв41056100 0.0 1035284
23 апреля, пт
пт2323:00+8ююв51259100 0.0 1036421
02:00+7ю41261100 0.0 1036421
05:00+5ююв411655 0.0 1036317
08:00+7ю5956100 0.0 1035375
11:00+13ю5843100 0.0 1034967
14:00+16ю6836100 0.0 10332434
17:00+15ююз5742100 0.0 10322083
20:00+12ю495198 0.0 1032400
24 апреля, сб
сб2423:00+9ю3861100 0.0 1032216
02:00+8ююв2664100 0.0 1031183
05:00+6ююв3865100 0.0 1030187
08:00+8ю3555100 0.0 1030251
11:00+11ююв3546100 0.0 1029628
14:00+13ююв4636100 0.0 10271402
17:00+13ююв4637100 0.0 10261803
20:00+10ююз1250100 0.0 102636